OBJECT F, 44315

Orbit data source: Space-Track

You're viewing an Uncataloged Satellite

Recently launched and/or uncataloged satellites may have evolving metadata. Metadata may include but not limited to: Owner, Maufacturer, Bus, Motor, and Mission.

OBJECT F, 44315 is a satellite owned by Changguang WJ (CN) in LEO that was launched on Wed, 05 Jun 2019 UTC via a CHANG ZHENG 11 launch vehicle from the Yellow Sea Launch Area, China (YSLA). Unknown objects in Earth's orbit typically refer to objects detected orbiting the Earth but have not yet been identified or cataloged. These objects could be anything from previously untracked satellites, spent rocket stages, debris from satellite collisions, or even natural meteoroids temporarily captured by Earth's gravity.

Loading next visibility...
OBJECT F details
Identifier
44315, 2019-032F
Orbit
LEO
Last TLE update9 hours ago
Origin
Flag of CNChangguang WJ (CN / PRC)
ManufacturerCIOMP
MissionCommercial Imaging
Bus & MotorJL-1, Unknown motor
Mass39 kg wet, 39 kg dry
Launch date (UTC)
2019-06-05 (6 years ago)
Launch vehicle
CHANG ZHENG 11
Launch site
Yellow Sea Launch Area, China (YSLA)
Object typeUnknown
Shape & HBRBox + 2 Pan, 1.5 m
Radar Cross Section2.000 m², Medium (>0.1 m² and < 1m²)

Expand to show TLE details & history

TLE from 9 hours ago
0 OBJECT F
1 44315U 19032F   24361.23336840  .00031973  00000-0  11799-2 0  9999
2 44315  44.9910  13.9474 0009897 113.4215 246.7709 15.27238332306071
Epoch: 2024-12-26T05:36Z
Definitive object data (Epoch: 2024-12-26T05:36:03.029Z)
Latitude-0.00006°
Longitude-165.28098°
Altitude486.754 km
Speed7.622 km/s
True Right ascension00h 55m 47s
True Declination0° 00' 00"
Sunlit
Object was in daylight at TLE epoch
Visualization TLE readout
Latitude-40.87539°
Longitude133.21666°
Altitude503.404 km
Speed7.609 km/s
Apparent Right ascension23h 21m 47s
Apparent Declination-47° 36' 17"
Sunlit
Object is in daylight
Visualization observer readout
Local Sidereal Time14:05:24
Azimuth118.473° SE
Elevation-59.85°
Doppler factor1
Orbital elements
Apogee altitude492.476 km
Perigee altitude478.89 km
Semi-major axis6,863.82 km
Eccentricity0.0009897
Inclination44.991°
RAAN13.9474°
Arg. of periapsis113.4215°
True anomaly246.66673°
Mean anomaly246.7709°
Eccentric anomaly246.71881°
Mean motion3.81676 °/min
BSTAR0.0011799
Orbital period94.32 mins
Loading maneuver chart data...
Loading historical data...
Loading historical data...
Loading historical data...
Loading historical data...
Loading historical data...
Loading historical data...
Loading historical data...

OBJECT F Visibility forecast

Observer location: undefined°, undefined

Span
Click to sort rows by Start time (UTC) header in descending order
Start Az.
Max El. time (UTC)
Max El. Az.
Max El.
End time (UTC)
End Az.
6 mins2024-12-27 03:45:31.408Z206.021° SW2024-12-27 03:48:31.408Z148.818° SSE26.692°2024-12-27 03:51:31.408Z85.759° E
5 mins2024-12-27 05:25:31.408Z268.763° W2024-12-27 05:27:31.408Z3.515° NNE41.004°2024-12-27 05:30:31.408Z61.962° ENE
5 mins2024-12-27 07:04:31.408Z305.174° NW2024-12-27 07:06:31.408Z1.894° NNE30.536°2024-12-27 07:09:31.408Z65.736° ENE
5 mins2024-12-27 08:43:31.408Z303.903° NW2024-12-27 08:45:31.408Z6.026° NNE40.779°2024-12-27 08:48:31.408Z96.658° ESE
5 mins2024-12-27 10:22:31.408Z262.417° W2024-12-27 10:24:31.408Z207.59° SW27.49°2024-12-27 10:27:31.408Z151.651° SSE
|